Simultaneous Nadir Overpasses (SNOs) Predictions

Prediction of SNOs over PacNW region [( 10.00, 139.50) to ( 22.70, 165.60)] between AQUA and NPP Satellites:

Table of predicted SNOs over PacNW region for the next 30.0 days since TLE Epoch: 11/1/2019
Index Date (AQUA) Time (AQUA) AQUA Lat,Lon Date (NPP) Time (NPP) NPP Lat,Lon Distance(km) Time Diff (sec)
1 11/06/2019 15:09:44 22.63, 159.84 11/06/2019 15:11:14 23.20, 157.21 276.64 90
2 11/09/2019 03:31:32 22.65, 147.52 11/09/2019 03:28:03 24.74, 145.22 329.49 209
3 11/14/2019 15:59:06 22.63, 147.49 11/14/2019 16:01:54 23.26, 144.54 310.79 168
4 11/22/2019 15:09:34 22.60, 159.87 11/22/2019 15:11:06 23.18, 157.21 280.31 92
5 11/25/2019 03:31:21 22.65, 147.57 11/25/2019 03:27:52 24.56, 145.27 315.68 209




NCC Satellite Simultaneous Nadir Overpasses (SNOs) Prediction Service
